Flag for Denmark Weather past 2 weeks in Aarhus, Denmark

Now
54 °F

Drizzle. Low clouds.


Feels Like: 51 °F
Forecast: 53 / 56 °F
Wind: 9 mph from South

Location: Tirstrup

Current Time: Oct 24, 2014 at 12:25:24 AM

Latest Report: Oct 23, 2014 at 11:50 PM


Visibility: 3 mi

Pressure: 30.09 "Hg

Humidity: 88%

Dew point: 50 °F

Location of AarhusLocation

Historic Weather in Aarhus — Graph

°F

Aarhus temperature yesterday

Maximum temperature yesterday: 54 °F (at 3:50 AM)
Minimum temperature yesterday: 50 °F (at 8:20 AM)
Average temperature yesterday: 52 °F

Past Weeks' High & Low Weather Summary

 TemperatureHumidityPressure
High63 °F (Oct 11, 4:20 PM)94% (Oct 11, 6:50 AM)30.12 "Hg (Oct 11, 6:50 AM)
Low43 °F (Oct 12, 10:50 PM)55% (Oct 12, 3:20 PM)29.33 "Hg (Oct 21, 7:20 PM)
Average54 °F83%29.78 "Hg
* Reported Oct 8 11:20 PM — Oct 23 11:20 PM, Aarhus, Weather by CustomWeather, © 2014

Note: Actual official high and low records may vary slightly from our data, if they occured in-between our weather recording intervals... More about our weather records

Advertising

Aarhus weather history for previous 24 hours

 ConditionsComfort  
Time TempWeatherWind HumidityBarometerVisibility
11:20 PM
Oct 23
54 °FDrizzle. Fog.9 mph88%30.09 "Hg2 mi
10:50 PM54 °FDrizzle. Fog.9 mph88%30.09 "Hg2 mi
10:20 PM54 °FSprinkles. Overcast.8 mph88%30.09 "Hg5 mi
9:50 PM54 °FSprinkles. Overcast.7 mph82%30.09 "Hg4 mi
9:20 PM54 °FDrizzle. Overcast.8 mph82%30.09 "Hg5 mi
8:50 PM52 °FDrizzle. Low clouds.8 mph94%30.09 "Hg3 mi
8:20 PM52 °FLight rain. Fog.8 mph88%30.09 "Hg2 mi
7:50 PM52 °FDrizzle. Overcast.9 mph88%30.09 "Hg2 mi
7:20 PM52 °FSprinkles. Fog.9 mph82%30.09 "Hg2 mi
6:50 PM54 °FSprinkles. Overcast.12 mph77%30.09 "Hg4 mi
6:20 PM52 °FSprinkles. Overcast.12 mph82%30.09 "Hg5 mi
5:50 PM52 °FOvercast.9 mph82%30.09 "Hg4 mi
5:20 PM54 °FOvercast.8 mph77%30.09 "HgN/A
4:50 PM54 °FOvercast.7 mph77%30.09 "HgN/A
4:20 PM54 °FMostly cloudy.8 mph72%30.09 "HgN/A
3:50 PM54 °FPartly sunny.8 mph77%30.09 "HgN/A
3:20 PM54 °FPartly sunny.6 mph77%30.09 "HgN/A
2:50 PM54 °FPartly sunny.7 mph72%30.09 "HgN/A
2:20 PM54 °FSprinkles. Partly sunny.7 mph72%30.12 "HgN/A
1:50 PM54 °FPartly sunny.7 mph77%30.09 "HgN/A
1:20 PM54 °FBroken clouds.6 mph77%30.09 "HgN/A
12:50 PM54 °FPartly sunny.5 mph77%30.12 "HgN/A
12:20 PM54 °FBroken clouds.5 mph82%30.12 "HgN/A
11:50 AM54 °FOvercast.5 mph82%30.12 "HgN/A
11:20 AM52 °FOvercast.3 mph94%30.09 "Hg6 mi
10:50 AM52 °FPartly sunny.5 mph88%30.09 "Hg4 mi
10:20 AM52 °FPartly sunny.3 mph88%30.09 "Hg4 mi
9:50 AM50 °FOvercast.2 mph94%30.09 "Hg4 mi
9:20 AM50 °FOvercast.2 mph88%30.09 "Hg4 mi
8:50 AM50 °FLow clouds.5 mph94%30.09 "Hg3 mi
8:20 AM50 °FDrizzle. Fog.7 mph94%30.07 "Hg1 mi
7:50 AM52 °FFog.2 mph88%30.07 "Hg2 mi
7:20 AM52 °FLow clouds.6 mph88%30.07 "Hg3 mi
6:50 AM54 °FSprinkles. Low clouds.3 mph88%30.07 "Hg3 mi
6:20 AM52 °FSprinkles. Fog.7 mph94%30.07 "Hg2 mi
5:50 AM52 °FFog.6 mph94%30.04 "Hg2 mi
5:20 AM52 °FFog.6 mph94%30.04 "Hg2 mi
4:50 AM52 °FDrizzle. Fog.5 mph88%30.04 "Hg2 mi
4:20 AM52 °FDrizzle. Fog.3 mph88%30.04 "Hg2 mi
3:50 AM54 °FDrizzle. Low clouds.5 mph82%30.04 "Hg4 mi
3:20 AM52 °FLow clouds.6 mph88%30.04 "HgN/A
2:50 AM52 °FLow clouds.5 mph88%30.04 "HgN/A
2:20 AM52 °FLow clouds.5 mph88%30.04 "HgN/A
1:50 AM52 °FLow clouds.6 mph82%30.04 "HgN/A
1:20 AM52 °FLow clouds.5 mph82%30.04 "HgN/A
12:50 AM52 °FLow clouds.6 mph82%30.04 "HgN/A
12:20 AM52 °FPassing clouds.8 mph82%30.01 "HgN/A
Weather by CustomWeather, © 2014

See weather overviewHow to use our weather pages